Location: Appletree Creek
(38.7363°N, 122.6833°W)
Time: 09:48:17
(UTC+00:00)

Cosmos 990 Rocket - Pass Details

Date: 18 September 2020
Orbit: 747 x 769 km, 74.0° (Epoch: 21 October)

Event Time Altitude Azimuth Distance (km) Brightness Sun altitude
Rises 13:22:28 0° 335° (NNW) 3,215 7.0 -7.2°
Reaches altitude 10° 13:24:53 10° 330° (NNW) 2,289 6.2 -6.8°
Maximum altitude 13:29:51 48° 257° (WSW) 989 4.2 -5.8°
Drops below altitude 10° 13:34:50 10° 184° (S) 2,289 6.4 -4.8°
Sets 13:37:15 0° 178° (S) 3,213 7.2 -4.4°
